Regional Weather Roundup
Issued by NWS Boston, MA

Home | Current Version | Previous Version | Text Only | Print | Product List | Glossary On
Versions: 1 2 3 4 5 6 7 8 9 10 11 12 13 14 15 16 17 18 19 20 21 22 23 24 25 26 27 28 29 30 31 32 33 34 35 36 37 38 39 40 41 42 43 44 45 46 47 48 49 50
000
ASUS41 KBOX 280010
RWRBOX

REGIONAL WEATHER ROUNDUP
NATIONAL WEATHER SERVICE TAUNTON MA
800 PM EDT FRI MAR 27 2015

NOTE:  "FAIR" INDICATES FEW OR NO CLOUDS BELOW 12,000 FEET WITH NO
SIGNIFICANT WEATHER AND/OR OBSTRUCTIONS TO VISIBILITY.  THE FOLLOWING
OBSERVATION LOCATIONS DO NOT REPORT PRESENT WEATHER...PROVINCETOWN...
SMITHFIELD...BLOCK ISLAND...KEENE...AND OXFORD.

MAZALL-280100-
EASTERN MASSACHUSETTS

CITY           SKY/WX    TMP DP  RH WIND       PRES   REMARKS
BOSTON         CLOUDY    39  35  86 CALM      29.74S
6HR MIN TEMP:  38; 6HR MAX TEMP:  41;

BEVERLY        CLOUDY    40  35  83 CALM      29.73R
LAWRENCE       CLOUDY    39  36  89 CALM      29.74S
BEDFORD        CLOUDY    36  35  96 CALM      29.72R
BLUE HILL        N/A     37  36  96 W5        29.71R
NORWOOD        CLOUDY    38  37  97 CALM      29.74R
MARSHFIELD     CLOUDY    39  36  87 CALM      29.74S
PLYMOUTH       CLOUDY    36  36 100 CALM      29.72F
TAUNTON        CLOUDY    38  37  97 CALM      29.72F FOG
NEW BEDFORD    CLOUDY    40  38  93 CALM      29.72S
$$

MAZALL-280100-
CAPE COD AND THE ISLANDS

CITY           SKY/WX    TMP DP  RH WIND       PRES   REMARKS
FALMOUTH       CLOUDY    37  36  93 CALM      29.72S
HYANNIS        CLOUDY    37  36  96 N5        29.71F
CHATHAM        MIX PCPN  37  36  96 N5        29.72F
PROVINCETOWN   CLOUDY    37  36  93 NW3       29.74R
NANTUCKET      CLOUDY    38  35  89 N13       29.70F WCI  30
MARTHAS VNYRD  LGT RAIN  38  34  85 N6        29.71F
$$

MAZALL-280100-
CENTRAL AND WESTERN MASSACHUSETTS

CITY           SKY/WX    TMP DP  RH WIND       PRES   REMARKS
WORCESTER      CLOUDY    38  32  79 W6        29.71R
6HR MIN TEMP:  37; 6HR MAX TEMP:  41;

FITCHBURG      CLOUDY    39  34  82 CALM      29.73R
ORANGE         PTCLDY    34  30  85 NW3       29.72S
SPRINGFIELD    MOCLDY    39  31  72 NW5       29.74R
WESTFIELD      MOCLDY    40  29  64 CALM      29.74R
NORTH ADAMS    CLOUDY    38  27  64 CALM      29.75R
PITTSFIELD     CLOUDY    36  26  67 VRB5      29.71S
$$

RIZALL-280100-
RHODE ISLAND

CITY           SKY/WX    TMP DP  RH WIND       PRES   REMARKS
PROVIDENCE     CLOUDY    40  37  89 CALM      29.75R
6HR MIN TEMP:  40; 6HR MAX TEMP:  43; 6HR PCP: TRACE;

NEWPORT        CLOUDY    39  37  92 NE3       29.72R
BLOCK ISLAND   CLOUDY    39  36  87 CALM      29.74R
SMITHFIELD     CLOUDY    37  34  87 CALM      29.74R
WESTERLY       CLOUDY    42  38  85 CALM      29.74R
$$

CTZALL-280100-
CONNECTICUT

CITY           SKY/WX    TMP DP  RH WIND       PRES   REMARKS
BRADLEY INTL   MOCLDY    41  29  62 NW5       29.75R
6HR MIN TEMP:  41; 6HR MAX TEMP:  45;

HARTFORD       CLOUDY    43  29  57 VRB6      29.74S
BRIDGEPORT     CLOUDY    44  29  55 N7        29.75R
DANBURY        CLOUDY    40  24  53 N3        29.76R
GROTON         CLOUDY    43  36  76 N3        29.73R
NEW HAVEN      MOCLDY    42  30  62 N5        29.74R
CHESTER        CLOUDY    39  32  75 NW5       29.74R
MERIDEN        CLOUDY    38  29  70 W3        29.75R
WILLIMANTIC    CLOUDY    42  32  67 CALM      29.74R
OXFORD         PTCLDY    39  25  56 N6        29.75R
$$

MEZ002-015-021-024-NHZ003-005-008-011-012-014-VTZ005-008-280100-
NORTHERN NEW ENGLAND

CITY           SKY/WX    TMP DP  RH WIND       PRES   REMARKS
PORTLAND ME    CLOUDY    40  35  83 CALM      29.73R
6HR MIN TEMP:  40; 6HR MAX TEMP:  49;

BANGOR ME      CLOUDY    39  26  59 NW6       29.73R
CONCORD NH     CLOUDY    42  31  64 N7        29.73R
MANCHESTER NH  MOCLDY    41  38  89 CALM      29.71S
NASHUA NH      CLOUDY    38  35  89 CALM      29.73S
PORTSMOUTH NH  MOCLDY    38  36  91 CALM      29.71R
JAFFREY NH     MOCLDY    34  30  85 CALM      29.71R
KEENE NH       CLOUDY    39  30  70 N8        29.73S
BURLINGTON VT  CLOUDY    32  25  75 N6        29.82R WCI  26
MT. WASHINGTON SNOW      16  16 100 N10         N/A  VSB 1/16WCI   3
$$

NYZ052-076-280100-
EASTERN NEW YORK

CITY           SKY/WX    TMP DP  RH WIND       PRES   REMARKS
ALBANY         MOCLDY    38  24  57 NW12G23   29.78R WCI  30
6HR MIN TEMP:  38; 6HR MAX TEMP:  46;

NEW YORK CITY  CLOUDY    45  28  51 N10       29.75R
6HR MIN TEMP:  44; 6HR MAX TEMP:  46;

$$

ANZALL-280100-
MARINE OBSERVATIONS

STATION/POSITION TIME  TEMP    WIND        PRES    VSBY  WAVE
                       AIR SEA DIR/SP/G                  HT/PER
                 (UTC) (F)     (DEG/KT/KT) (MB)    (MI)  (FT/S)
BOSTON BUOY      2350   37 37  210/  2/  4 1006.6F         3/ 9
BUZZARDS BAY     2300           50/  4/  4 1007.2R
NANTUCKET SOUND  2350   37 36  360/  8/  8 1006.2F         2/ 5
MASS BAY-STELLWA 2304   37 37  140/  2/  2   N/A    1 7/8  3/11
ISLE OF SHOALS   0000   40     260/  8/  8 1006.1R
S OF BLOCK IS    2308      38                N/A           7/12
$$

......................KEY.........................
  SKY/WX - SKY CONDITION/PRESENT WEATHER
  TMP    - TEMPERATURE IN FAHRENHEIT
  DWPT   - DEWPOINT IN FAHRENHEIT
  RH     - RELATIVE HUMIDITY IN PERCENT
  WIND   - DIRECTION AND SPEED IN MPH
  PRES   - MEAN SEA LEVEL PRESSURE IN INCHES OF HG
  WCI    - WIND CHILL INDEX
  VSB    - VISIBILITY IN MILES
  HX     - HEAT INDEX
  TC     - TEMPERATURE IN CELSIUS
  VRB    - VARIABLE WIND DIRECTION
  N/A    - NOT AVAILABLE


USA.gov is the U.S. government's official web portal to all federal, state and local government web resources and services.